HS2LXA-13 Weather Reports


time (UTC)temp
C
wind
direction
speed
KPH
gust
KPH
rain 1hr
cm
rain 24hr
cm
rain mn
cm
humidity
%
barometer
mb
20260509201025 28 67 0.0 0.0 0.00 0.00 0.00 85 1008.4
20260509200027 28 0 0.0 0.0 0.00 0.00 0.00 85 1008.4
20260509195021 28 0 0.0 0.0 0.00 0.00 0.00 85 1008.3
20260509194020 28 0 0.0 0.0 0.00 0.00 0.00 85 1008.3
20260509193020 29 67 0.0 0.0 0.00 0.00 0.00 88 1008.4
20260509192020 29 67 0.0 0.0 0.00 0.00 0.00 93 1008.5
20260509191016 29 67 0.0 0.0 0.00 0.00 0.00 93 1008.4
20260509190014 29 67 0.0 0.0 0.00 0.00 0.00 93 1008.6
20260509185013 29 112 0.0 0.0 0.00 0.00 0.00 93 1008.6
20260509184011 29 112 0.0 0.0 0.00 0.00 0.00 93 1008.9
20260509183009 29 202 0.0 0.0 0.00 0.00 0.00 93 1008.8
20260509182012 29 0 0.0 0.0 0.00 0.00 0.00 93 1009.0
20260509180023 29 0 0.0 0.0 0.00 0.00 0.00 94 1009.0
20260509175022 29 0 0.0 0.0 0.00 0.00 0.00 94 1009.3
20260509174019 29 67 0.0 0.0 0.00 0.00 0.00 93 1009.5
20260509173018 29 112 0.0 0.0 0.00 0.00 0.00 93 1009.6
20260509172016 29 112 0.0 0.0 0.00 0.00 0.00 93 1009.7
20260509171014 29 67 0.0 0.0 0.00 0.00 0.00 93 1009.8
20260509170010 29 112 0.0 0.0 0.00 0.00 0.00 92 1009.7
20260509165008 29 67 0.0 0.0 0.00 0.00 0.00 93 1009.9
20260509164016 29 112 0.0 0.0 0.00 0.00 0.00 92 1010.0
20260509163005 30 67 0.0 0.0 0.00 0.00 0.00 92 1010.2
20260509162005 29 0 0.0 0.0 0.00 0.00 0.00 93 1010.1
20260509161003 30 0 0.0 0.0 0.00 0.00 0.00 92 1010.2
20260509160008 30 67 0.0 0.0 0.00 0.00 0.00 92 1010.3
20260509155001 30 0 0.0 0.0 0.00 0.00 0.00 93 1010.3
20260509154002 30 0 0.0 0.0 0.00 0.00 0.00 93 1010.3
20260509152956 29 112 0.0 0.0 0.00 0.00 0.00 93 1010.3
20260509151955 30 0 0.0 0.0 0.00 0.00 0.00 93 1010.3
20260509150953 29 0 0.0 0.0 0.00 0.00 0.00 94 1010.3
20260509145951 29 0 0.0 0.0 0.00 0.00 0.00 94 1010.1
20260509144943 30 0 0.0 0.0 0.00 0.00 0.00 94 1010.1
20260509143942 29 0 0.0 0.0 0.00 0.00 0.00 93 1009.9
20260509142939 30 0 0.0 0.0 0.00 0.00 0.00 92 1009.6
20260509141939 30 0 0.0 0.0 0.00 0.00 0.00 91 1009.7
20260509140939 30 0 0.0 0.0 0.00 0.00 0.00 90 1009.5
20260509135937 30 0 0.0 0.0 0.00 0.00 0.00 91 1009.2
20260509134935 30 0 0.0 0.0 0.00 0.00 0.00 90 1009.1
20260509133938 30 0 0.0 0.0 0.00 0.00 0.00 90 1008.9
20260509132932 30 0 0.0 0.0 0.00 0.00 0.00 90 1008.8
20260509131932 30 0 0.0 0.0 0.00 0.00 0.00 89 1008.5
20260509130931 30 112 0.0 0.0 0.00 0.00 0.00 89 1008.4
20260509125931 30 112 0.0 0.0 0.00 0.00 0.00 89 1008.2
20260509124929 30 112 0.0 0.0 0.00 0.00 0.00 88 1008.1
20260509123920 30 112 0.0 0.0 0.00 0.00 0.00 88 1007.9
20260509122919 31 112 0.0 0.0 0.00 0.00 0.00 88 1007.8
20260509121919 31 67 0.0 0.0 0.00 0.00 0.00 87 1007.6
20260509120916 31 112 0.0 0.0 0.00 0.00 0.00 86 1007.4
20260509115914 31 0 0.0 0.0 0.00 0.00 0.00 87 1007.2
20260509114915 31 112 0.0 0.0 0.00 0.00 0.00 85 1007.0
20260509113912 31 315 0.0 0.0 0.00 0.00 0.00 84 1007.0
20260509112916 31 67 0.0 0.0 0.00 0.00 0.00 84 1006.8
20260509111908 31 67 0.0 0.0 0.00 0.00 0.00 84 1006.6
20260509110906 31 67 0.0 0.0 0.00 0.00 0.00 83 1006.4
20260509105237 31 225 0.0 0.0 0.00 0.00 0.00 83 1006.6
20260509104232 32 112 0.0 0.0 0.00 0.00 0.00 81 1006.6
20260509103231 32 67 0.0 0.0 0.00 0.00 0.00 82 1006.5
20260509102231 32 202 0.0 0.0 0.00 0.00 0.00 82 1006.6
20260509101231 32 112 0.0 0.0 0.00 0.00 0.00 82 1006.8
20260509100230 32 0 0.0 0.0 0.00 0.00 0.00 80 1006.6
20260509095230 32 0 0.0 0.0 0.00 0.00 0.00 81 1006.7
20260509094228 33 315 0.0 0.0 0.00 0.00 0.00 82 1006.9
20260509093225 33 225 0.0 0.0 0.00 0.00 0.00 83 1006.9
20260509092223 32 112 74.0 165.8 0.00 0.00 0.00 83 1006.6
20260509091221 33 225 0.0 1.6 0.00 0.00 0.00 83 1006.8
20260509090220 33 112 0.0 0.0 0.00 0.00 0.00 83 1006.9
20260509085221 33 225 4.8 11.3 0.00 0.00 0.00 83 1007.0
20260509084217 33 112 8.0 17.7 0.00 0.00 0.00 78 1007.1
20260509083214 33 315 0.0 0.0 0.00 0.00 0.00 77 1007.1
20260509082213 34 202 0.0 0.0 0.00 0.00 0.00 76 1007.3
20260509081211 33 0 0.0 0.0 0.00 0.00 0.00 76 1007.4
20260509080214 35 112 0.0 0.0 0.00 0.00 0.00 76 1007.6
20260509075208 35 112 0.0 0.0 0.00 0.00 0.00 75 1007.6
20260509074207 35 225 0.0 1.6 0.00 0.00 0.00 74 1007.8
20260509073207 34 225 0.0 0.0 0.00 0.00 0.00 74 1008.0
20260509072202 34 315 1.6 4.8 0.00 0.00 0.00 74 1008.2
20260509071200 35 67 0.0 0.0 0.00 0.00 0.00 74 1008.3
20260509070200 35 112 0.0 0.0 0.00 0.00 0.00 75 1008.7
20260509065159 35 225 0.0 0.0 0.00 0.00 0.00 76 1008.9
20260509064157 35 112 3.2 8.0 0.00 0.00 0.00 74 1008.8
20260509063156 35 112 0.0 0.0 0.00 0.00 0.00 75 1008.9
20260509062149 35 0 0.0 0.0 0.00 0.00 0.00 76 1009.0
20260509061147 35 67 0.0 0.0 0.00 0.00 0.00 78 1009.2
20260509060146 35 112 0.0 0.0 0.00 0.00 0.00 76 1009.5
20260509055145 34 315 0.0 0.0 0.00 0.00 0.00 76 1009.6
20260509054144 34 112 0.0 0.0 0.00 0.00 0.00 77 1009.7
20260509053143 33 67 0.0 0.0 0.00 0.00 0.00 76 1009.8
20260509052143 35 67 0.0 0.0 0.00 0.00 0.00 78 1010.0
20260509051145 34 0 0.0 0.0 0.00 0.00 0.00 77 1010.1
20260509050139 35 0 0.0 0.0 0.00 0.00 0.00 77 1010.2
20260509045139 35 0 0.0 0.0 0.00 0.00 0.00 79 1010.4
20260509044136 35 225 0.0 0.0 0.00 0.00 0.00 78 1010.5
20260509043134 35 315 0.0 0.0 0.00 0.00 0.00 75 1010.6
20260509042133 34 225 0.0 0.0 0.00 0.00 0.00 75 1010.5
20260509041131 34 0 0.0 0.0 0.00 0.00 0.00 76 1010.7
20260509040130 34 22 0.0 0.0 0.00 0.00 0.00 77 1010.8
20260509035128 34 0 0.0 0.0 0.00 0.00 0.00 77 1010.9
20260509034127 33 112 0.0 0.0 0.00 0.00 0.00 77 1011.2
20260509033124 33 0 0.0 0.0 0.00 0.00 0.00 78 1011.3
20260509032122 33 0 0.0 0.0 0.00 0.00 0.00 79 1011.4
20260509031120 33 0 0.0 0.0 0.00 0.00 0.00 78 1011.5
20260509030120 32 270 0.0 0.0 0.00 0.00 0.00 78 1011.7
20260509025120 31 225 0.0 0.0 0.00 0.00 0.00 80 1011.9
20260509024119 31 0 0.0 0.0 0.00 0.00 0.00 80 1012.1
20260509023118 32 270 0.0 0.0 0.00 0.00 0.00 81 1012.0
20260509022116 31 0 0.0 0.0 0.00 0.00 0.00 81 1012.0
20260509021115 31 90 0.0 0.0 0.00 0.00 0.00 83 1011.9
20260509020112 31 112 0.0 0.0 0.00 0.00 0.00 84 1011.8
20260509015111 31 112 0.0 0.0 0.00 0.00 0.00 83 1011.6
20260509014111 30 22 0.0 0.0 0.00 0.00 0.00 84 1011.6
20260509013110 30 22 0.0 0.0 0.00 0.00 0.00 85 1011.6
20260509012109 31 270 0.0 0.0 0.00 0.00 0.00 86 1011.4
20260509011108 31 22 0.0 0.0 0.00 0.00 0.00 87 1011.4
20260509010106 32 225 0.0 0.0 0.00 0.00 0.00 88 1011.3
20260509005105 31 0 0.0 0.0 0.00 0.00 0.00 89 1011.3
20260509004104 32 22 0.0 0.0 0.00 0.00 0.00 89 1011.1
20260509003103 28 90 0.0 0.0 0.00 0.00 0.00 89 1011.0
20260509002101 30 0 0.0 0.0 0.00 0.00 0.00 89 1011.0
20260509001101 28 22 0.0 0.0 0.00 0.00 0.00 90 1010.9
20260509000057 27 90 0.0 0.0 0.00 0.00 0.00 91 1010.9
20260508235055 27 90 0.0 0.0 0.00 0.00 0.00 92 1010.8
20260508234054 26 202 0.0 0.0 0.00 0.00 0.00 91 1010.7
20260508233054 26 270 0.0 0.0 0.00 0.00 0.00 91 1010.6
20260508232053 26 112 0.0 0.0 0.00 0.00 0.00 90 1010.4
20260508231047 25 270 0.0 0.0 0.00 0.00 0.00 90 1010.1
20260508230045 26 0 0.0 0.0 0.00 0.00 0.00 89 1009.9
20260508225043 25 270 0.0 0.0 0.00 0.00 0.00 89 1009.8
20260508224041 25 112 0.0 0.0 0.00 0.00 0.00 89 1009.9
20260508223040 25 270 0.0 0.0 0.00 0.00 0.00 89 1009.8
20260508222044 26 270 0.0 0.0 0.00 0.00 0.00 88 1009.7
20260508221036 26 270 0.0 0.0 0.00 0.00 0.00 88 1009.4
20260508220034 26 270 0.0 0.0 0.00 0.00 0.00 88 1009.3
20260508215033 26 112 0.0 0.0 0.00 0.00 0.00 88 1009.3
20260508214032 25 112 0.0 0.0 0.00 0.00 0.00 89 1009.2
20260508213031 26 270 0.0 0.0 0.00 0.00 0.00 90 1009.1
20260508212030 26 270 0.0 0.0 0.00 0.00 0.00 93 1008.9
20260508211027 26 270 0.0 0.0 0.00 0.00 0.00 95 1009.0
20260508210025 25 270 0.0 0.0 0.00 0.00 0.00 94 1009.0
20260508205025 26 270 0.0 0.0 0.00 0.00 0.00 94 1009.0
20260508204023 26 270 0.0 0.0 0.00 0.00 0.00 95 1008.9
20260508203022 26 270 0.0 0.0 0.00 0.00 0.00 95 1008.8
20260508202022 26 270 0.0 0.0 0.00 0.00 0.00 94 1008.7